Location: Bergnershof
(48.9468°N, 10.9431°E)
Time: 04:34:20
(UTC+00:00)

ATLAS 5 CENTAUR R/B - Pass Details

Date: 03 March 2021
Orbit: 254 x 14192 km, 60.8° (Epoch: 11 April)

Event Time Altitude Azimuth Distance (km) Brightness Sun altitude
Rises 17:12:33 0° 230° (SW) 10,487 9.4 -2.4°
Reaches altitude 10° 17:22:44 10° 233° (SW) 7,127 8.5 -4.1°
Maximum altitude 17:38:22 68° 317° (NW) 1,221 3.7 -6.6°
Drops below altitude 10° 17:42:26 10° 42° (NE) 2,005 4.3 -7.3°
Enters shadow 17:43:31 - 45° (NE) 2,473 4.7 -7.5°
